Theta_e
335 334 334 334 335 337 337 337 337 337 337 337 337 336 336 335 335 335 335 334 333 331 331 330 330 329 328 329 329 329 330 330 331 332 333 334 334 331 330 329 328 330 332 333 331 330 330 330 329 328 327 326 327 328 328 328 325 323 324 321 317 313 310 306 305 308 310 314 319 320 319 317 317 319 320 319 319 320 320 320 320 320 320 320 320
335 336 335 335 336 337 337 337 337 336 337 337 336 337 337 336 336 336 335 335 335 333 332 332 330 329 328 328 328 329 330 330 330 330 331 333 335 333 331 330 328 329 330 331 332 331 330 330 329 328 328 326 326 327 328 328 325 325 327 326 323 321 319 314 310 307 308 314 316 316 319 320 321 321 319 318 319 320 320 320 320 319 319 319 319
336 337 336 335 336 337 337 336 337 336 337 337 337 337 336 336 336 336 336 336 335 335 334 333 331 329 328 328 328 329 329 329 330 330 330 331 334 334 331 330 329 328 329 330 330 331 331 330 329 328 328 328 327 327 327 326 326 327 328 327 325 324 324 322 318 311 307 309 312 314 317 319 320 320 319 319 319 320 319 319 319 319 319 319 319
337 337 336 335 335 337 336 336 337 337 337 337 337 337 336 336 336 336 337 336 336 335 334 334 333 330 329 329 328 328 329 329 329 329 330 330 332 334 332 331 330 328 328 329 329 330 331 331 330 329 328 328 328 327 326 326 325 327 328 328 326 326 326 326 323 318 310 306 307 309 313 315 314 316 318 318 317 317 318 319 319 319 319 319 319
337 336 336 335 335 336 336 336 337 337 337 336 336 337 336 336 336 336 337 336 336 336 335 334 333 332 331 329 329 328 328 328 329 329 329 330 331 333 334 333 332 330 329 328 328 329 331 331 331 329 328 328 327 327 327 327 325 325 327 328 326 327 328 326 324 322 316 312 308 305 307 310 309 310 313 315 314 313 316 318 318 318 319 318 318
336 336 335 334 335 336 336 335 336 335 336 336 336 336 336 336 335 335 335 336 336 336 336 335 334 333 332 331 330 329 328 328 329 329 329 330 331 333 334 334 334 332 330 329 328 328 329 330 330 329 328 328 327 327 327 327 326 325 325 326 325 327 328 327 325 323 321 319 315 310 308 307 306 307 308 311 313 314 315 316 317 318 318 318 319
335 335 335 334 334 335 335 335 335 335 335 335 335 336 335 336 335 334 335 335 335 336 335 335 334 333 333 333 331 330 329 328 330 330 330 331 332 334 335 334 334 334 334 332 330 329 328 329 330 329 328 328 327 327 327 327 327 326 324 324 324 326 327 326 325 325 324 322 319 316 313 308 306 307 306 307 310 315 316 315 317 318 318 318 318
334 335 334 334 333 334 334 334 334 334 334 334 335 335 335 335 335 335 334 334 334 335 335 335 334 333 334 334 332 331 331 329 330 330 330 331 332 335 336 336 335 335 335 334 332 331 330 328 329 329 329 329 328 329 328 327 328 328 326 323 323 326 327 326 324 325 326 325 321 319 317 314 310 308 307 304 306 310 313 314 316 317 317 318 317
334 334 334 333 333 333 333 333 333 333 333 333 334 334 334 334 334 335 334 333 333 334 334 335 334 334 334 334 333 332 331 331 332 331 330 331 332 333 334 336 336 336 335 335 333 333 332 330 329 330 330 329 329 330 329 328 328 328 327 323 322 324 327 326 324 324 326 326 324 321 320 318 316 313 309 306 305 305 308 313 315 315 316 317 317
334 334 334 333 332 332 332 333 332 333 333 333 333 333 333 334 333 334 334 334 333 333 334 334 334 334 334 334 333 332 331 331 332 332 331 331 331 332 333 335 336 336 336 336 335 334 333 332 330 330 330 330 329 329 330 330 329 329 329 326 324 323 325 326 325 325 325 325 325 324 322 321 320 318 314 311 309 304 303 309 311 311 311 314 317
334 334 334 333 332 332 332 332 332 331 332 332 332 332 332 333 333 333 334 334 334 334 334 334 334 334 334 334 333 332 329 328 330 332 332 332 332 332 333 335 336 336 335 336 336 335 333 333 332 331 330 331 330 329 329 330 330 330 330 330 328 326 325 327 328 326 324 324 326 326 325 324 323 323 319 315 313 308 302 303 305 306 307 308 312
333 334 334 332 332 332 332 332 331 331 332 332 332 332 332 332 332 332 332 333 333 333 334 334 334 333 333 333 334 334 331 329 330 332 332 331 332 332 333 334 334 334 335 335 335 334 332 332 332 331 331 331 332 331 330 330 330 330 330 330 330 328 327 327 328 326 325 324 325 326 326 326 325 324 323 319 316 312 307 303 302 304 304 303 305
331 332 332 331 331 331 331 331 331 331 331 331 332 331 332 332 332 332 332 332 332 333 333 333 333 332 331 332 333 333 333 332 332 331 331 331 331 332 332 332 333 332 333 333 334 333 332 331 332 331 331 331 332 332 330 330 329 329 330 330 330 330 329 328 327 327 327 326 325 325 324 326 326 325 325 322 319 317 314 310 306 304 304 302 300
329 329 329 328 328 328 329 329 329 330 329 330 331 331 331 331 331 332 332 332 332 333 332 332 332 331 331 331 331 332 333 332 332 331 331 331 331 331 330 330 330 331 331 332 333 333 332 332 332 332 331 331 331 332 330 329 329 330 330 330 329 330 329 329 328 328 328 328 326 325 324 324 326 326 325 324 322 319 317 314 312 309 307 305 302
327 327 326 325 326 325 326 327 327 328 328 328 329 330 331 332 332 331 332 332 331 332 332 332 331 331 332 331 329 331 331 331 332 332 332 332 331 331 330 330 330 330 331 332 332 332 332 332 332 332 332 331 330 330 330 330 330 330 329 329 329 330 330 329 329 328 328 328 327 327 326 325 325 326 325 325 324 322 318 316 315 314 312 309 307
326 325 324 325 326 326 326 327 327 327 327 327 328 328 329 331 331 331 331 332 332 332 332 332 332 332 331 331 330 330 330 331 331 331 332 331 330 331 331 331 331 330 331 331 332 332 331 331 331 331 331 331 331 331 331 330 329 328 327 327 327 328 328 327 328 328 328 328 328 327 325 324 324 325 325 325 324 323 321 319 318 318 318 316 313
325 325 325 325 325 326 326 326 326 326 326 326 326 327 327 328 328 329 329 331 332 332 331 331 331 331 331 331 331 329 330 330 331 329 328 329 329 331 331 331 331 330 330 330 331 331 331 331 331 330 330 329 330 331 331 330 328 328 328 328 326 326 326 326 327 328 328 328 328 327 326 324 323 323 325 325 323 323 323 322 321 321 321 320 319
325 325 325 325 325 325 325 325 325 325 325 325 325 326 328 328 328 329 329 330 331 332 332 331 331 331 331 331 331 330 330 330 330 329 327 327 329 329 329 330 330 330 329 329 329 330 329 330 330 330 329 328 329 329 330 329 328 328 329 329 328 326 326 326 327 327 327 328 328 328 328 327 326 324 324 325 325 324 322 322 323 322 323 322 322
324 324 323 324 324 325 325 324 324 323 324 325 324 326 327 327 328 329 329 329 330 331 331 331 330 330 330 331 330 330 330 331 330 329 327 327 327 328 328 328 328 327 327 327 326 327 327 327 328 329 328 328 329 329 329 328 328 328 327 327 327 327 327 327 327 326 326 327 328 328 329 329 328 326 326 326 327 326 325 325 325 324 323 323 323
322 323 323 323 324 324 323 323 321 321 321 322 323 325 326 326 326 327 327 328 329 330 330 331 330 330 330 330 330 329 330 331 330 329 328 328 326 326 326 324 323 323 323 323 322 322 323 323 325 326 326 327 327 327 328 329 328 327 325 325 326 326 327 327 327 327 327 327 327 328 328 329 330 329 328 328 328 328 328 328 327 326 325 324 324
322 321 321 321 322 322 321 320 319 319 319 321 323 324 325 324 324 324 325 326 328 329 329 329 329 329 329 328 328 328 328 330 331 330 329 328 327 325 324 323 321 319 319 319 319 319 319 319 320 321 322 323 324 324 324 326 327 326 325 325 325 326 326 327 327 327 327 327 327 328 328 328 329 329 329 329 329 329 329 328 328 328 327 326 326
320 320 319 319 320 320 319 319 319 320 321 322 322 322 322 322 322 323 324 325 326 326 327 328 327 327 326 326 325 325 326 328 330 330 329 328 327 326 324 322 320 318 316 315 316 316 316 317 317 318 319 320 320 319 320 323 325 325 326 326 327 326 326 326 327 326 326 327 327 328 329 329 328 328 329 329 329 329 329 329 328 328 328 328 328
319 318 318 319 319 319 319 319 320 320 321 321 320 319 320 320 321 322 323 323 324 325 325 324 324 323 323 322 322 322 323 324 327 327 328 328 325 323 322 320 318 317 314 314 314 314 314 315 315 316 316 317 317 316 316 319 322 324 325 326 326 326 326 325 325 325 325 325 324 324 326 328 328 328 329 329 329 329 329 330 329 329 329 329 329
317 317 318 319 318 318 318 318 319 320 319 319 319 318 318 319 320 321 322 322 322 322 322 322 321 320 320 319 318 318 318 319 322 324 325 326 324 322 320 318 317 315 314 313 313 313 313 313 314 314 315 315 315 314 314 314 316 319 322 324 325 325 325 325 324 323 322 322 321 320 320 321 322 323 324 325 326 327 328 328 329 329 329 329 329
318 317 318 319 317 317 317 316 317 318 318 318 318 318 317 318 318 319 319 320 320 320 320 320 319 318 318 317 315 315 314 315 318 321 322 322 322 321 319 318 317 316 314 313 312 311 311 311 312 313 313 314 313 312 312 311 311 313 315 318 320 321 321 321 321 320 320 319 319 318 317 318 318 317 318 319 320 321 322 323 323 324 324 324 325
318 318 318 319 317 316 315 315 316 316 317 318 317 318 317 315 316 317 318 318 318 318 318 317 317 317 316 314 313 313 313 313 315 318 320 320 320 319 319 319 319 317 315 314 313 311 309 309 309 310 311 312 312 311 311 310 308 309 310 311 312 314 314 315 315 315 315 315 315 315 315 315 315 315 315 316 316 316 316 316 316 317 318 319 320
318 318 319 319 318 317 317 316 315 315 316 317 317 317 316 315 315 316 316 316 316 317 316 316 316 316 315 314 313 313 313 312 312 314 317 319 320 319 318 318 317 317 316 314 312 311 309 307 307 307 308 309 310 309 309 308 307 307 308 309 308 309 309 310 311 311 311 312 312 312 312 312 312 313 314 314 314 314 314 314 314 314 315 315 315
318 318 319 319 318 318 318 318 317 315 316 317 316 316 316 315 314 315 314 313 314 315 314 315 315 315 315 314 312 312 312 312 311 312 315 317 319 318 318 317 317 316 315 314 312 310 309 308 307 306 306 307 308 306 306 307 306 307 308 307 306 306 307 307 307 308 309 309 310 310 310 310 310 310 311 311 311 312 312 312 312 312 312 312 313
319 319 320 320 319 318 318 318 318 317 316 316 316 316 316 315 315 315 314 313 313 313 313 314 314 314 313 313 312 312 312 311 311 312 313 315 316 318 317 317 316 316 315 315 314 311 309 308 308 307 305 306 307 306 305 304 303 306 308 306 304 304 304 305 305 306 306 306 307 308 308 309 309 309 309 309 309 310 310 310 310 311 311 311 311
319 319 320 320 319 319 318 318 319 318 317 317 317 317 316 316 316 315 314 313 313 313 313 313 313 313 313 312 312 312 312 311 311 311 312 313 314 315 315 315 315 315 315 315 314 312 309 308 308 308 306 306 306 306 305 302 301 304 307 306 303 301 301 302 302 303 305 305 306 306 307 307 308 308 308 308 309 308 309 309 309 309 310 310 310
319 319 319 319 318 319 319 318 319 318 318 318 318 318 317 316 316 316 316 315 314 314 313 313 313 313 313 312 312 311 312 312 310 310 311 311 311 312 313 314 314 315 314 314 312 311 310 310 309 308 307 307 306 306 307 304 302 304 306 306 302 300 302 303 300 300 301 302 303 304 305 306 307 307 307 307 308 308 308 308 308 309 309 309 309
318 319 318 318 318 318 318 318 318 318 318 318 319 319 319 319 318 317 316 316 315 314 313 313 313 313 313 313 312 312 312 311 310 310 310 310 311 310 311 312 313 313 313 313 312 311 311 311 310 308 308 308 307 307 308 307 305 305 306 305 303 303 305 306 303 301 299 298 299 300 301 303 304 305 306 306 307 307 308 308 308 308 308 308 309
318 319 319 318 318 318 318 318 319 319 319 319 319 319 319 319 319 318 317 317 317 316 314 313 313 313 313 313 312 312 312 311 311 309 309 310 310 310 311 311 312 313 313 313 313 313 312 311 311 310 309 309 308 308 308 308 307 306 306 306 305 304 305 305 305 304 300 298 298 298 298 299 300 301 302 303 304 305 306 306 307 307 307 308 308
318 318 318 318 318 319 319 319 319 320 320 320 320 320 320 320 320 319 319 319 318 318 317 316 314 314 314 314 313 313 313 312 311 310 310 309 309 310 312 312 314 315 315 315 315 315 313 312 312 311 310 310 309 308 308 308 308 307 306 306 306 305 304 304 305 304 301 298 297 297 297 297 297 298 298 299 300 301 302 302 303 304 305 306 307
318 317 318 319 319 320 320 320 320 321 321 321 321 321 321 321 321 320 320 320 319 319 319 318 316 315 315 315 315 314 313 313 313 311 310 310 310 310 312 314 315 315 316 316 315 315 315 314 313 312 312 312 310 308 308 308 308 307 307 307 306 305 305 304 304 303 302 299 297 297 297 296 297 297 297 297 297 297 298 299 299 300 300 301 303
319 319 319 320 320 321 321 321 321 321 321 322 322 321 322 322 322 321 321 321 321 320 319 319 318 317 317 316 316 316 315 315 314 313 312 311 310 311 313 314 315 315 316 316 315 315 316 315 314 313 313 312 310 309 308 308 308 308 307 307 307 306 306 305 305 304 302 299 297 297 296 296 296 296 296 296 296 297 297 297 297 297 297 298 299
320 321 321 321 321 321 322 321 321 322 322 322 322 322 322 322 322 322 322 321 321 321 320 320 319 318 318 317 317 317 315 315 316 315 313 312 311 311 313 314 314 315 315 315 316 315 316 315 314 313 312 312 311 309 308 308 309 309 308 308 307 306 307 306 305 304 302 300 300 299 297 296 297 296 296 296 296 296 296 296 296 296 296 297 297
322 322 322 322 322 321 321 321 321 322 322 322 322 322 322 322 322 322 322 322 322 322 322 321 320 320 319 319 318 317 317 316 316 316 315 313 313 312 312 313 313 314 314 315 315 315 315 315 314 313 312 312 312 310 308 308 309 309 309 308 307 307 307 306 305 304 303 302 302 301 299 298 298 297 296 296 296 296 296 296 296 296 296 296 296
323 323 323 323 323 322 322 322 322 322 322 322 323 322 323 323 323 323 323 323 322 322 322 321 321 321 320 320 319 319 318 317 316 316 316 314 313 313 313 313 312 313 314 314 314 315 315 315 314 314 313 312 311 311 309 308 309 309 308 307 307 307 306 305 304 304 303 303 302 301 300 299 299 298 298 298 298 298 297 296 296 296 296 295 296
323 323 323 324 324 323 323 323 323 323 323 323 323 323 323 323 323 323 323 323 322 322 322 321 321 321 320 320 320 319 320 319 317 317 317 315 314 314 313 312 312 312 313 313 314 314 314 314 314 313 313 312 312 311 310 309 309 308 307 306 306 306 305 304 303 303 303 302 302 301 300 300 301 300 300 300 300 300 298 297 297 297 297 296 296
324 323 324 324 323 323 323 324 323 323 323 323 323 323 322 323 323 323 323 323 323 322 323 323 322 321 321 321 321 320 320 318 316 316 316 314 314 313 313 312 312 312 313 313 313 312 313 314 314 313 313 313 312 310 310 309 309 307 306 305 305 305 303 303 303 303 303 302 301 301 301 301 301 301 301 301 301 301 300 299 300 300 299 297 295
324 324 324 324 323 323 323 324 324 324 323 322 321 320 320 321 323 323 323 323 324 323 323 323 323 322 322 321 321 319 318 317 315 314 314 313 313 313 312 312 312 311 312 312 312 312 312 313 313 312 312 312 311 310 309 308 307 306 305 304 304 303 303 303 302 303 303 302 301 301 300 300 301 302 301 301 301 301 301 301 301 300 297 295 294
322 324 324 323 323 323 324 324 324 323 322 321 320 320 320 320 321 322 323 323 322 322 322 322 322 321 321 321 321 320 318 316 315 314 313 313 313 312 311 310 310 309 310 311 311 311 311 311 311 310 310 310 309 308 307 307 305 304 303 303 303 303 302 302 302 302 302 301 300 300 300 300 301 301 301 301 301 301 301 301 300 298 296 294 294
320 321 322 323 323 323 323 323 323 322 321 320 321 321 321 319 317 319 321 320 320 320 320 319 319 319 319 320 319 319 318 316 315 315 313 313 313 311 310 309 308 307 307 308 309 309 309 309 309 309 309 309 307 307 306 305 303 301 301 302 302 302 302 302 301 301 302 301 299 300 300 301 301 301 301 301 301 301 301 300 299 298 296 295 294
320 320 322 323 322 322 323 322 322 322 321 321 321 321 319 318 316 316 319 319 318 318 319 318 318 318 318 318 318 318 317 316 315 314 313 312 312 311 309 308 305 304 304 305 306 306 306 307 307 308 307 305 304 305 303 301 300 300 301 301 301 301 300 300 301 300 300 299 299 300 300 300 300 300 301 300 301 301 301 300 299 298 297 296 294
319 319 320 320 319 318 318 318 319 319 320 321 322 320 319 318 316 316 317 319 318 317 317 317 317 317 318 317 317 317 316 315 314 313 311 310 309 308 307 305 303 303 303 304 304 304 304 304 304 304 304 303 302 302 301 299 299 299 300 300 299 299 299 299 299 299 299 299 299 299 300 300 300 300 300 300 300 300 300 299 298 297 296 296 295
317 317 317 315 313 313 314 315 315 314 315 317 320 320 319 319 317 316 317 317 317 316 315 315 315 315 316 316 316 315 315 314 313 311 309 307 307 307 306 305 304 304 304 303 303 303 302 302 302 302 302 301 300 299 299 298 298 298 298 298 298 298 298 299 299 299 299 299 299 299 299 299 299 299 299 299 299 299 299 299 298 297 296 296 296
314 314 315 313 312 312 314 315 314 311 309 311 315 317 318 318 316 316 316 315 315 315 314 313 313 313 313 314 314 313 312 310 309 308 308 308 308 308 307 306 305 304 303 303 303 302 301 300 299 299 299 298 296 295 295 295 295 295 296 296 297 298 299 299 300 299 299 300 299 298 298 298 298 298 298 298 298 298 298 298 298 297 297 296 296
313 313 313 313 312 313 313 313 314 312 309 308 311 313 315 315 315 314 315 314 314 314 312 312 311 310 309 311 311 311 308 307 306 306 306 308 308 307 307 306 304 303 302 301 300 299 298 297 296 295 294 294 293 293 293 293 292 292 293 296 297 298 299 299 299 299 299 299 298 298 298 298 297 297 298 298 298 297 297 297 298 297 297 296 296
313 312 312 312 312 312 312 310 311 311 309 307 310 312 313 313 313 314 313 313 313 312 311 311 309 307 307 307 308 308 306 304 304 303 304 306 308 307 306 306 305 303 301 299 299 298 297 297 296 296 295 294 294 294 293 293 292 291 292 295 297 297 298 298 299 299 298 298 298 298 297 297 297 297 297 297 297 297 297 297 297 297 297 297 296
312 311 311 311 311 311 310 307 306 310 311 309 310 312 312 312 313 313 312 312 312 311 310 309 308 306 305 304 305 305 304 303 303 302 303 305 307 306 305 305 305 304 301 300 300 299 299 299 298 297 297 296 296 296 295 295 294 292 293 295 296 296 297 297 298 298 298 298 298 297 297 297 297 296 296 296 296 296 296 296 296 296 296 297 296
Wind_Speed
8 9 9 8 7 6 6 6 6 6 6 7 6 6 5 4 4 4 4 4 4 4 4 4 4 4 4 5 6 7 7 7 6 6 6 6 6 6 6 5 6 8 8 7 6 5 7 6 5 5 4 4 3 2 1 1 4 4 5 6 7 7 7 6 5 4 4 4 5 5 5 5 6 6 7 7 8 8 7 7 7 6 6 7 7
5 7 7 6 6 6 5 5 5 6 6 7 7 6 5 5 4 5 5 5 4 4 4 3 4 3 4 5 5 6 6 7 7 6 6 6 6 7 6 6 5 6 8 8 7 6 7 6 6 6 5 4 4 3 2 0 2 2 3 5 6 6 6 7 6 4 4 4 4 4 4 4 4 4 5 6 7 6 6 6 6 6 6 7 7
3 4 4 5 5 4 4 4 5 6 6 6 6 6 6 5 5 5 5 6 5 4 4 3 3 3 3 4 4 5 6 6 6 6 6 6 6 6 6 6 6 6 7 7 7 7 7 6 6 6 5 4 4 4 3 2 1 1 1 3 4 5 5 6 6 5 5 4 3 3 3 4 3 3 4 4 5 5 6 6 6 6 6 6 6
4 4 3 5 5 4 3 4 4 5 5 6 6 6 6 6 5 5 5 5 5 5 5 4 3 3 3 3 3 5 6 6 6 5 5 5 5 6 6 6 6 6 6 7 7 9 9 7 7 6 6 5 4 5 4 3 2 1 1 1 3 3 4 5 6 5 5 4 3 2 2 2 2 3 3 3 3 4 5 5 5 5 5 5 6
4 4 4 5 5 3 3 4 4 4 4 5 6 5 6 6 5 5 5 5 5 5 5 5 4 3 3 2 2 3 4 4 6 5 4 4 4 5 5 5 6 6 6 7 8 9 10 9 8 7 7 7 5 6 5 4 3 2 2 2 1 2 2 4 5 5 5 5 4 3 2 1 1 1 2 2 2 3 4 4 5 5 5 5 5
4 4 4 4 3 3 4 3 3 3 3 3 4 4 5 5 5 6 5 5 5 6 6 6 6 5 4 3 3 4 4 4 4 4 4 4 4 4 4 5 6 6 7 7 7 8 9 9 8 6 7 8 7 7 6 5 5 3 2 2 3 2 0 2 4 4 4 4 4 4 3 2 2 1 0 1 1 2 3 4 4 4 5 5 5
4 4 5 4 4 4 3 2 2 2 2 2 3 3 4 4 5 5 5 5 6 6 6 6 6 6 5 4 4 5 5 4 3 4 5 4 4 4 4 4 5 5 7 7 7 7 8 8 8 5 5 7 7 7 7 6 5 4 3 4 5 2 1 1 2 3 3 4 3 4 3 3 3 2 1 0 1 2 2 3 3 4 4 4 5
4 3 4 4 3 2 2 2 1 1 2 2 2 3 3 3 3 4 5 6 6 6 6 6 6 5 4 4 4 4 4 3 3 3 4 4 4 3 3 3 4 5 5 5 5 7 7 7 7 6 4 4 5 5 5 6 6 5 4 4 4 2 1 1 1 2 2 3 3 3 3 3 3 3 3 2 1 1 2 2 3 3 3 3 4
4 3 4 3 3 2 2 3 2 2 2 1 2 2 3 3 3 4 5 6 6 6 5 5 5 5 4 4 5 5 4 3 2 3 3 4 3 4 4 3 4 5 5 4 4 6 6 5 5 5 4 3 4 5 5 5 6 6 5 4 3 2 2 2 0 1 2 3 2 2 2 2 3 3 3 2 1 1 1 2 2 3 4 3 3
5 5 5 4 2 2 3 4 3 2 2 1 1 2 2 3 3 4 4 6 6 4 4 4 4 5 5 5 5 5 6 4 3 3 3 3 3 3 4 3 3 4 4 4 4 5 5 5 5 5 6 5 4 5 6 6 6 7 7 5 4 3 2 3 1 2 3 3 2 1 1 2 2 3 3 3 2 2 1 2 2 3 3 4 4
6 6 6 5 3 2 2 3 1 1 1 1 1 2 2 2 3 4 4 5 5 3 3 3 4 5 5 4 4 5 6 6 4 2 2 2 2 2 3 3 3 3 4 4 4 4 4 4 6 7 7 7 6 6 6 6 6 6 6 7 6 4 2 2 3 5 5 3 3 3 2 1 2 2 3 3 3 3 2 3 3 3 3 4 5
7 7 7 6 6 5 3 1 1 2 1 1 1 2 2 3 3 4 4 5 4 4 3 3 4 4 4 4 3 4 5 6 5 3 3 3 3 3 3 3 2 2 2 2 4 4 3 4 7 8 7 6 7 7 7 6 6 5 4 5 6 7 5 3 3 6 6 5 4 4 5 4 3 3 2 3 4 4 3 3 3 4 4 4 5
8 8 8 7 6 6 5 4 3 2 1 0 1 2 2 3 3 3 5 5 5 4 3 4 5 5 5 5 4 4 4 6 5 4 4 4 4 4 3 3 2 1 1 1 1 1 2 3 5 6 7 6 7 9 8 6 6 6 6 4 4 4 5 5 6 6 6 6 5 5 6 6 5 4 3 3 5 5 5 4 4 4 4 4 4
8 8 7 6 5 4 4 4 4 3 2 1 1 2 3 3 3 3 4 5 5 4 3 5 6 5 5 5 5 5 3 4 4 4 4 5 6 5 4 3 2 2 2 3 2 2 1 1 1 3 4 5 5 7 7 7 8 8 8 6 4 2 2 5 7 9 8 7 6 7 7 7 7 5 3 3 4 5 6 6 5 5 5 4 4
8 7 7 5 5 5 5 5 4 3 2 1 1 2 3 3 3 3 3 4 4 3 3 4 4 5 4 3 3 4 4 5 5 3 3 4 5 5 4 3 3 3 2 3 3 3 3 3 3 2 2 1 1 2 4 7 7 6 5 5 4 4 5 5 6 9 9 8 7 7 8 8 8 7 6 4 4 5 6 6 6 6 6 5 5
8 7 7 6 6 6 6 6 5 4 3 2 2 1 2 3 3 3 3 4 4 3 2 3 4 5 4 2 3 4 4 4 4 2 2 2 3 5 3 2 2 3 2 3 3 3 4 4 5 5 4 3 3 2 1 3 3 3 4 5 6 6 7 7 7 8 8 9 8 8 9 9 8 9 8 7 5 5 6 7 7 7 7 7 7
8 8 7 7 7 7 6 6 6 5 4 4 3 2 1 1 1 2 2 2 3 3 2 2 3 4 4 3 3 3 1 3 4 1 3 5 6 6 4 1 1 1 2 3 3 3 4 5 6 5 4 3 4 3 2 3 4 2 2 4 7 7 7 8 10 9 8 9 9 9 10 9 9 9 9 8 7 6 7 8 8 9 9 9 9
8 8 7 7 7 6 6 6 6 5 4 4 4 3 3 3 2 2 1 1 1 2 2 3 2 1 2 3 2 2 1 2 3 3 5 6 6 6 4 3 3 3 4 4 4 5 5 5 6 5 5 5 5 5 4 4 4 2 2 4 6 7 8 10 13 13 11 11 11 11 11 11 11 11 10 9 9 8 8 9 10 10 10 10 10
8 8 7 7 6 6 6 6 5 5 4 4 4 5 6 6 5 4 3 2 1 1 1 3 3 2 1 0 1 2 3 2 1 3 4 4 6 7 6 6 7 8 7 7 7 7 7 7 6 5 5 6 6 7 6 6 5 3 1 3 4 6 7 9 12 14 15 14 13 12 12 12 12 13 12 11 11 11 11 10 10 11 11 12 11
8 8 7 7 7 7 6 5 5 4 4 4 5 6 6 6 7 6 5 5 4 2 1 1 2 2 2 1 1 1 2 2 2 2 4 5 6 8 9 10 12 12 10 9 10 10 10 10 9 7 7 8 7 7 6 6 5 3 3 2 0 1 3 4 6 8 10 11 12 13 14 14 13 13 15 15 14 14 13 12 12 13 13 13 13
8 7 7 7 7 6 6 6 6 5 5 5 6 7 7 7 6 6 5 5 5 5 4 3 2 2 2 2 2 2 2 3 3 2 2 3 5 6 8 9 11 13 12 11 11 11 12 12 11 11 11 10 10 9 6 4 4 5 5 4 3 2 0 1 2 3 3 4 4 5 8 10 12 13 15 16 16 17 16 15 15 16 16 16 16
7 7 7 7 7 6 7 7 8 7 7 7 7 7 7 7 6 6 5 5 5 6 6 5 4 4 3 2 2 2 2 3 3 3 2 4 5 6 7 8 8 10 13 12 11 11 12 12 12 12 12 11 11 11 9 8 7 7 6 4 3 3 1 2 3 3 3 5 6 5 4 3 4 9 12 13 15 17 17 16 16 15 15 17 18
7 7 7 7 8 8 8 9 9 9 8 8 7 7 7 7 7 7 7 6 6 7 7 6 5 5 5 5 5 5 4 4 3 3 4 5 6 7 8 10 9 9 12 11 9 9 11 11 12 12 12 12 11 12 12 12 11 9 7 5 4 4 3 3 3 4 5 6 6 6 5 5 4 2 6 8 11 14 14 15 15 14 13 15 17
7 7 7 8 9 9 9 9 10 9 9 8 8 8 7 7 7 8 8 7 7 6 6 6 6 5 6 5 5 5 5 5 4 3 4 6 7 7 9 11 9 9 10 9 8 9 10 11 11 11 11 11 11 12 12 13 12 10 9 7 6 5 5 4 3 4 5 6 6 6 5 6 6 5 5 5 6 8 9 10 12 13 13 14 15
8 8 7 8 8 9 10 10 10 10 10 9 9 8 8 8 8 8 8 7 7 6 7 7 6 6 6 5 6 6 5 5 5 4 4 6 7 7 9 9 9 10 11 9 9 10 10 11 11 11 11 11 11 12 12 12 12 11 10 8 7 6 5 3 3 3 4 4 4 4 5 5 5 5 5 5 5 5 6 7 8 10 10 11 12
9 8 8 8 9 10 11 11 11 10 10 10 9 9 8 9 9 8 8 7 7 7 7 7 7 7 7 6 7 7 6 6 5 4 4 5 6 6 7 8 7 8 9 8 8 9 10 10 10 10 10 10 11 10 10 10 10 11 10 9 7 6 5 4 4 4 5 5 5 4 4 4 4 3 5 6 6 7 8 9 10 10 10 11 11
10 9 8 8 9 9 10 11 11 10 10 10 9 9 9 9 9 8 8 8 7 7 7 7 8 8 8 7 7 7 8 7 6 4 3 4 5 6 6 5 5 6 7 7 8 8 8 9 10 10 9 10 9 9 9 8 8 10 9 8 7 6 5 5 5 5 5 5 5 5 4 4 4 5 7 8 9 9 10 11 11 12 12 13 13
11 10 9 8 8 8 9 9 10 10 10 9 9 9 9 9 9 9 8 8 8 7 7 7 8 8 8 8 8 8 8 8 8 7 5 3 4 5 4 3 3 4 4 5 6 7 6 7 9 10 9 9 8 8 8 7 7 8 7 5 5 5 5 5 5 4 5 5 5 5 5 6 6 7 7 8 9 9 10 10 11 12 13 14 14
11 10 9 9 8 8 8 8 8 9 9 9 9 9 9 9 8 8 8 7 7 7 7 7 7 7 8 8 8 8 8 9 9 8 6 4 4 4 2 1 1 2 3 3 4 6 6 6 7 8 8 8 7 7 7 6 6 7 5 4 5 5 4 4 5 5 5 5 5 6 6 6 7 7 8 8 8 8 9 9 10 11 11 12 12
11 11 10 9 9 9 8 8 8 8 8 8 8 8 9 9 8 8 7 7 7 6 6 6 6 7 7 7 8 8 8 9 9 9 8 6 4 3 2 2 1 1 3 4 4 5 6 6 7 7 7 7 6 6 6 5 6 7 4 4 4 6 6 5 5 5 6 6 6 7 7 7 7 7 8 8 8 9 9 9 10 10 11 11 12
12 11 11 10 10 9 9 9 8 8 8 7 7 7 7 8 8 7 7 6 6 6 5 5 5 5 6 6 7 7 7 7 8 8 8 7 5 4 3 3 3 3 3 4 4 4 4 5 6 5 5 6 5 5 5 5 6 6 4 3 4 7 9 9 9 7 7 8 8 8 9 9 9 9 9 9 9 10 10 10 10 11 11 12 12
12 12 11 11 10 10 10 10 10 9 9 8 7 7 7 6 6 6 6 5 5 5 5 4 4 4 4 5 5 5 5 5 6 6 7 7 6 5 5 5 5 4 3 5 6 6 4 4 5 4 4 4 4 5 4 4 6 6 4 3 5 7 7 9 12 11 9 9 10 10 11 11 12 12 12 12 12 12 12 12 12 12 13 13 13
12 12 11 11 11 10 10 10 10 10 10 9 8 7 7 6 6 6 5 4 4 5 4 4 3 3 2 3 3 3 3 4 4 4 5 5 5 5 6 6 6 5 5 6 8 7 6 4 4 4 3 2 3 4 4 3 4 4 3 4 6 6 4 6 10 12 12 12 11 11 11 12 13 13 14 14 15 15 15 15 15 15 15 15 15
12 12 11 11 10 10 10 10 10 10 10 10 9 8 7 7 6 5 5 4 4 4 3 3 3 2 2 2 2 2 2 2 2 3 3 3 3 4 5 5 7 6 5 5 7 7 6 5 4 4 4 2 2 3 3 3 4 3 3 4 4 4 5 6 7 11 14 15 13 12 12 12 12 13 14 15 15 16 17 17 18 18 18 18 18
13 12 12 11 10 10 9 9 9 9 9 9 9 8 8 8 7 6 5 5 4 4 3 2 2 2 2 2 2 2 2 2 2 2 2 1 2 4 5 5 6 6 4 3 4 5 5 5 3 3 3 2 2 3 2 2 3 4 3 4 4 3 5 7 6 8 14 16 14 11 11 11 12 13 13 15 16 17 17 18 18 19 20 20 20
13 13 12 12 11 10 9 9 9 8 8 8 7 7 7 7 6 6 5 5 5 5 4 4 4 3 3 4 3 3 3 3 3 3 3 3 2 4 5 5 5 5 4 3 2 2 2 3 2 1 1 1 1 3 4 3 3 4 4 5 6 5 5 7 7 8 14 18 16 12 11 11 11 12 13 14 16 16 17 18 18 19 19 20 21
13 13 13 12 11 10 9 9 9 8 7 7 6 7 7 6 5 5 5 5 5 6 6 7 7 6 6 6 6 5 5 5 4 4 4 4 4 4 5 5 5 5 4 2 2 1 1 1 2 2 1 0 0 2 4 5 6 5 6 7 8 7 6 8 9 8 12 16 15 14 15 14 13 14 14 14 14 15 16 16 17 18 19 20 20
13 13 12 11 11 10 10 9 8 7 6 6 6 6 6 6 6 5 5 6 6 6 7 8 8 8 8 9 8 8 8 7 7 6 5 4 5 5 5 5 5 5 4 3 3 2 2 2 2 3 3 1 1 2 2 5 6 6 7 10 11 9 8 9 10 9 9 10 11 13 15 14 14 16 16 15 14 14 13 14 15 16 17 19 19
13 12 11 10 10 10 10 9 8 7 6 5 5 6 6 6 6 6 6 6 6 6 6 7 8 8 9 10 10 10 10 9 8 7 6 6 6 6 6 6 5 5 5 4 4 4 3 3 3 3 2 2 1 2 2 3 5 6 7 11 13 12 10 11 12 11 8 8 11 13 15 16 17 17 17 17 15 13 13 14 15 15 15 17 18
11 11 10 10 10 9 9 8 7 6 5 5 5 5 5 6 6 7 6 6 7 7 6 7 7 8 9 9 9 10 10 10 10 9 8 8 7 7 6 6 7 7 6 5 5 5 5 5 5 4 4 4 3 3 4 5 6 7 8 10 12 13 12 12 13 11 8 8 10 12 13 15 15 15 15 15 15 15 16 16 14 13 15 16 17
8 8 9 9 9 8 7 6 6 5 4 4 5 6 6 6 6 6 6 6 6 6 5 6 6 6 7 7 8 9 10 12 13 12 11 11 10 8 7 7 8 8 7 7 6 5 6 7 7 5 6 8 6 5 6 6 6 8 9 10 11 13 13 13 13 10 7 9 11 12 12 13 12 12 12 11 12 14 16 14 9 9 14 18 19
6 6 7 7 7 7 6 5 5 4 3 4 6 7 6 6 6 5 4 4 4 4 4 4 4 5 6 6 7 8 9 11 13 14 14 14 15 13 10 9 9 9 7 6 5 4 6 7 6 5 6 7 5 5 6 6 5 7 8 10 12 13 13 13 13 9 5 7 11 14 15 13 11 12 12 10 10 12 11 9 8 12 16 18 18
3 3 4 4 5 5 5 5 4 4 4 6 5 4 4 6 6 4 3 3 3 3 2 2 3 3 4 5 5 6 6 7 10 12 14 16 17 16 15 13 12 12 10 6 5 5 5 5 4 3 5 5 4 5 6 6 6 8 9 11 12 12 12 12 13 10 5 7 13 16 16 13 11 12 13 11 11 11 10 11 15 18 19 18 17
4 3 3 3 3 4 4 5 5 4 5 6 5 5 6 6 6 5 3 2 3 2 1 0 2 2 3 3 3 3 4 5 7 8 11 14 16 17 18 16 13 13 12 9 6 3 3 4 4 4 4 5 6 6 5 6 8 9 10 11 11 11 12 12 13 12 10 11 14 16 16 13 11 13 13 12 12 12 12 15 18 19 19 19 19
5 5 3 3 4 5 5 6 6 4 4 5 5 6 6 6 6 5 3 2 2 2 2 1 2 2 3 4 1 2 2 3 4 5 8 13 16 16 16 15 12 11 11 10 8 5 2 2 2 3 3 4 6 5 5 6 9 9 10 11 11 11 13 13 14 15 15 14 14 14 15 14 11 12 14 14 13 12 13 16 18 19 20 21 20
5 5 6 6 7 7 7 6 6 6 5 5 5 6 6 5 5 4 3 2 2 3 3 2 2 2 2 3 2 1 1 1 3 5 6 9 11 11 11 10 10 9 8 7 6 4 3 2 2 2 3 4 5 5 5 6 7 9 10 11 12 13 14 15 16 18 17 14 11 12 14 14 11 13 15 14 13 13 14 16 19 21 22 21 20
9 9 8 8 9 8 7 6 6 6 5 4 4 5 4 5 5 4 2 2 2 3 4 4 4 3 3 3 2 2 3 2 5 6 7 8 10 11 11 10 9 8 6 4 3 3 2 2 1 2 2 4 4 4 5 6 7 8 11 12 14 14 15 16 16 16 14 12 9 10 14 14 13 14 15 14 14 15 15 15 18 21 20 19 20
10 9 8 9 9 8 7 6 6 6 5 4 4 4 4 5 5 3 2 2 3 4 5 5 5 5 5 5 4 5 5 6 7 10 10 10 10 10 10 9 8 6 5 4 4 4 4 4 4 4 5 7 8 8 9 9 9 9 11 13 14 13 13 14 14 13 12 9 8 10 14 15 13 14 16 16 16 17 16 16 17 18 18 18 20
8 8 8 7 7 7 6 6 5 5 4 3 4 4 5 6 5 3 3 3 4 5 5 5 5 6 6 7 7 7 8 9 10 12 12 10 8 8 8 8 6 4 4 4 4 5 6 6 6 7 7 8 10 12 12 11 10 9 10 12 11 10 12 13 13 12 11 11 10 11 13 14 13 14 17 18 17 17 17 16 15 15 17 19 21
7 7 7 7 6 6 6 5 5 5 3 3 4 5 5 6 5 4 3 4 5 5 6 6 6 7 7 8 9 8 9 11 11 12 11 8 5 5 6 5 5 5 3 3 4 5 6 7 8 9 10 12 12 12 10 10 10 9 9 10 10 11 12 12 13 13 13 13 11 8 11 14 14 15 18 19 18 17 15 15 15 15 17 19 20
6 6 6 6 6 5 5 5 6 5 4 4 5 5 5 6 6 4 3 4 4 3 4 5 6 7 7 7 8 8 9 11 11 10 9 6 3 4 3 3 3 3 2 1 2 3 4 6 7 8 10 11 11 9 9 11 12 9 8 10 10 11 12 13 14 13 12 11 9 9 14 17 16 16 18 18 16 15 14 16 17 17 18 18 19
Wind_Direction
167 172 163 169 196 206 206 206 197 194 195 194 198 203 204 200 191 191 189 187 187 185 189 196 201 214 223 215 211 210 206 212 212 207 203 177 183 206 188 169 159 156 159 169 175 165 170 172 169 173 160 158 167 169 199 52 50 44 48 52 50 50 51 50 56 70 81 88 93 91 86 82 80 85 90 97 100 94 88 85 83 83 92 95 89
169 169 160 168 202 213 206 209 204 201 199 198 203 204 209 207 199 197 192 195 192 187 195 198 201 203 219 220 211 211 207 212 215 209 210 190 184 206 200 176 166 167 164 168 178 169 167 172 169 173 171 166 163 166 216 278 58 42 51 53 43 42 40 40 39 42 59 80 92 91 88 83 80 82 85 94 96 93 97 99 95 87 88 92 90
176 177 159 164 202 213 197 201 203 201 199 198 202 203 208 211 211 206 202 202 191 190 199 196 205 198 206 219 209 211 211 214 219 212 212 202 189 197 205 192 177 176 171 168 174 170 170 179 174 176 180 174 166 166 191 231 259 228 102 64 43 38 32 34 31 29 41 57 72 77 88 95 94 91 85 93 97 100 108 106 100 93 88 90 89
178 172 166 184 204 203 187 199 205 198 196 195 198 200 204 212 217 216 215 210 195 195 199 196 208 204 206 215 209 215 213 215 223 220 216 212 193 187 202 206 192 186 177 167 168 170 173 180 182 183 184 181 181 181 187 202 230 244 185 127 45 28 24 31 28 26 31 35 44 49 68 92 101 110 102 99 107 113 115 111 109 106 100 97 93
170 161 177 204 207 197 192 201 205 202 193 190 190 192 200 211 219 219 219 217 206 199 198 198 203 205 212 209 213 226 219 221 227 227 223 215 200 192 195 197 197 199 190 172 164 171 175 176 186 191 183 186 192 192 193 188 186 224 227 182 31 352 7 31 28 30 31 26 30 26 29 41 55 103 127 118 114 127 127 123 124 121 116 111 108
154 154 169 196 209 202 205 212 214 208 197 192 185 185 199 208 217 220 218 222 216 203 199 199 200 199 196 189 198 213 225 237 229 227 229 218 204 200 194 187 196 206 201 186 168 173 179 178 189 191 176 184 197 195 197 194 186 198 229 240 277 289 187 52 31 34 35 25 20 16 21 23 9 15 128 150 137 139 140 135 131 129 128 128 126
153 154 159 180 212 207 205 225 230 214 204 200 193 194 202 208 223 228 221 224 222 210 203 200 200 195 185 180 179 191 217 235 227 223 223 216 203 200 200 196 202 201 195 193 184 183 186 186 194 195 178 185 192 188 190 196 195 186 185 234 259 269 199 111 38 21 28 25 15 7 10 13 5 2 352 297 179 159 160 153 139 136 141 142 137
156 158 159 179 226 229 215 226 221 221 211 199 212 210 209 217 231 238 233 229 223 212 205 199 196 192 180 176 174 176 197 207 214 217 213 215 210 204 205 202 203 200 199 205 205 203 199 191 194 200 199 193 183 175 184 194 194 189 183 218 247 263 260 208 25 342 350 13 9 359 1 0 358 354 342 323 247 193 188 175 159 158 157 156 152
139 142 140 155 205 212 223 222 184 192 206 192 217 220 222 230 231 237 240 239 231 215 206 199 188 187 183 177 179 188 196 201 228 225 211 221 220 217 216 211 210 210 215 220 220 221 211 197 199 205 213 220 202 182 185 190 182 188 193 206 229 230 242 228 90 344 317 346 359 351 349 341 345 344 330 321 295 255 227 195 190 186 174 173 172
123 123 121 132 170 186 233 242 201 180 199 188 209 225 227 235 234 234 239 243 243 227 213 202 181 183 187 181 182 197 205 207 228 237 228 229 228 227 220 208 215 220 224 222 227 225 197 188 200 207 214 220 224 204 193 193 186 188 195 200 215 228 243 220 201 333 323 329 319 263 295 323 329 328 313 302 292 290 255 220 220 210 189 180 184
119 118 118 126 129 137 206 258 259 161 208 233 243 247 235 229 231 232 237 245 252 243 228 210 186 185 184 182 178 190 206 208 208 212 212 215 206 222 218 204 204 222 240 238 241 231 193 201 205 202 211 207 213 221 204 199 199 195 196 198 205 218 251 235 258 296 308 309 282 254 257 298 314 311 298 283 281 292 268 235 230 218 208 194 188
115 115 114 119 119 121 131 115 42 45 9 297 270 254 237 223 222 229 236 238 241 236 233 226 206 189 185 194 187 180 193 200 204 196 189 187 156 155 178 183 180 195 250 256 259 251 213 223 222 214 222 213 208 219 217 211 211 216 213 209 205 202 207 206 237 275 291 296 275 256 263 279 296 301 292 276 273 283 282 256 234 217 221 215 200
105 106 105 106 106 108 110 105 94 84 77 262 235 225 214 211 210 220 232 233 231 225 233 234 212 196 197 202 209 210 196 192 198 196 187 167 145 150 158 153 136 112 62 34 320 290 191 209 235 226 223 221 213 213 219 216 210 222 229 236 240 209 202 202 210 237 262 282 281 267 268 273 285 295 297 285 270 264 265 264 255 237 237 236 220
100 98 95 90 89 93 99 100 99 103 110 153 185 190 188 202 210 213 224 231 231 220 225 236 223 217 220 212 209 215 221 221 213 193 183 170 156 155 151 144 123 97 78 59 45 25 49 104 286 240 216 216 212 208 217 214 211 224 226 228 247 256 239 217 218 225 229 247 263 266 271 275 281 286 288 288 276 264 256 259 264 258 252 252 244
102 97 89 86 90 94 98 97 95 98 94 109 150 169 167 179 202 208 209 211 211 207 213 232 240 237 236 240 222 211 220 221 210 187 182 181 155 136 130 130 106 90 78 53 46 37 30 42 37 12 9 346 193 192 219 212 211 231 233 230 241 250 260 253 240 237 232 237 246 252 264 273 278 279 279 277 275 275 266 261 264 262 257 256 255
106 103 97 99 100 97 101 102 97 95 91 89 95 137 164 169 188 202 212 207 189 184 201 212 237 247 242 243 234 233 230 187 176 183 159 107 73 84 88 90 81 72 66 54 49 52 41 38 42 35 28 28 48 61 223 191 179 230 252 251 252 249 257 269 270 260 248 246 245 240 247 261 267 268 271 272 271 275 275 272 267 262 253 247 246
104 102 100 99 95 92 97 101 96 91 89 85 79 81 125 158 170 185 215 225 178 171 173 175 222 262 276 279 256 257 277 135 150 143 80 67 54 60 58 50 83 81 70 57 46 52 48 43 45 37 21 20 33 33 11 57 93 146 248 249 243 243 247 255 260 262 258 255 255 249 244 248 253 255 261 267 272 277 276 274 270 265 257 248 242
97 94 94 93 92 91 89 93 92 84 83 83 78 75 74 76 70 73 85 354 208 188 160 140 166 237 270 294 306 307 307 174 164 119 84 71 68 72 64 65 85 80 67 56 48 50 47 45 45 36 22 19 21 24 29 41 61 111 212 248 247 247 248 248 246 247 250 252 253 253 250 250 252 255 259 262 264 264 263 266 269 265 258 254 250
91 87 86 87 89 91 84 82 83 77 77 73 71 75 71 67 60 53 52 37 10 251 156 141 146 135 137 277 315 309 295 268 182 138 131 105 89 85 72 64 67 66 62 59 56 52 50 47 43 40 36 33 26 28 44 54 51 64 194 245 257 250 244 247 246 246 248 249 247 242 241 243 249 255 256 257 258 256 258 264 271 269 261 257 255
89 85 84 86 89 89 82 76 75 75 78 72 68 72 69 62 58 50 46 47 46 44 73 126 135 124 140 174 175 196 245 240 241 217 174 139 112 95 83 78 73 67 61 59 60 58 57 55 50 50 51 44 39 36 49 67 62 60 81 82 54 233 229 247 259 257 257 262 259 250 246 243 242 247 249 250 252 255 260 264 269 270 266 264 262
87 83 84 89 91 88 83 79 79 81 84 85 78 72 67 59 52 44 43 50 51 54 62 64 61 77 120 134 124 136 152 162 187 214 173 129 122 110 101 93 75 61 59 59 61 63 62 61 59 59 58 54 50 48 58 80 79 80 84 75 64 64 90 287 306 305 309 324 313 279 269 257 243 243 248 251 254 258 262 263 265 265 264 266 267
90 83 84 89 89 85 84 83 84 86 87 88 82 73 68 59 53 48 45 53 56 57 61 66 67 56 57 61 50 55 73 97 130 138 99 95 115 118 111 104 80 61 67 67 62 65 66 64 64 63 62 62 59 58 63 75 78 79 81 73 64 69 55 13 14 19 26 32 39 37 7 323 241 246 255 258 260 261 263 266 268 267 264 266 269
95 88 86 88 88 85 85 85 85 85 86 87 84 78 76 69 66 65 60 61 62 62 61 61 64 55 44 36 28 26 23 35 68 108 114 113 118 119 113 109 102 86 84 81 71 72 72 69 67 67 66 64 65 64 62 64 69 71 71 68 67 70 66 56 52 58 60 54 50 45 26 26 38 326 285 274 267 265 265 267 270 271 269 268 269
103 95 89 89 91 87 84 84 84 84 84 85 83 80 81 78 76 72 68 65 60 61 61 57 59 57 50 42 37 35 23 21 34 68 115 125 124 124 124 119 110 106 109 105 93 81 73 72 70 69 70 68 67 68 65 64 68 72 73 72 73 72 72 71 64 58 59 59 59 57 37 24 30 18 350 331 306 287 277 273 273 272 271 272 273
111 104 97 94 93 90 89 87 86 86 86 85 83 83 83 82 79 74 68 65 60 60 60 55 52 51 51 50 49 50 41 29 30 51 95 123 129 126 127 126 121 128 132 123 106 89 73 70 70 68 68 68 67 67 68 69 72 74 73 73 74 72 64 52 41 33 28 30 34 33 17 4 4 356 334 325 321 310 301 294 286 281 279 282 283
117 112 105 99 95 94 93 92 92 90 89 87 85 83 83 83 80 75 70 65 62 62 60 57 53 50 52 55 55 54 51 44 43 62 92 115 128 127 123 123 124 129 130 118 102 89 76 68 65 68 68 66 67 67 67 71 75 76 72 70 68 63 57 43 26 15 9 8 7 3 353 335 325 310 287 282 286 288 292 294 293 292 289 287 286
123 119 113 106 101 98 94 93 94 94 92 91 88 85 84 84 81 76 73 68 66 64 59 57 54 52 52 53 56 54 48 47 45 54 75 91 111 125 126 127 126 119 115 107 92 81 80 75 66 63 66 66 65 66 68 69 70 69 65 63 60 52 45 31 14 6 0 356 351 343 334 318 299 279 272 275 281 282 282 284 285 288 288 288 287
130 127 123 118 112 107 100 96 94 94 95 93 93 92 88 86 84 78 74 72 70 68 66 64 57 54 52 51 58 56 48 46 45 47 59 83 109 126 136 136 129 124 122 112 99 86 77 78 75 66 62 67 66 62 62 59 60 62 54 49 49 40 34 18 359 350 339 330 326 319 311 303 293 286 281 278 279 280 280 279 278 280 282 284 284
139 138 136 135 130 125 116 108 101 98 98 98 98 100 96 92 88 82 78 75 74 73 71 71 66 61 59 58 62 62 53 49 48 51 59 78 111 132 135 116 112 140 139 121 104 93 75 63 73 73 66 67 68 65 60 51 62 70 56 36 29 18 18 6 344 337 329 320 314 309 304 299 295 291 289 286 283 282 282 281 281 280 279 279 279
147 148 149 149 147 143 137 127 120 112 106 104 103 104 101 99 96 91 88 84 80 78 76 76 74 71 69 68 69 68 61 56 54 57 63 73 100 123 108 81 41 58 123 122 99 85 80 70 66 70 69 68 66 69 64 45 56 72 62 39 16 356 359 357 341 332 322 315 308 302 299 295 291 288 286 285 285 284 283 283 282 281 281 278 277
155 155 156 157 157 154 149 143 138 131 123 116 111 108 104 104 103 100 100 98 92 88 85 81 78 78 79 78 78 74 68 64 61 62 67 72 87 106 108 98 73 58 94 122 112 87 83 87 81 71 69 69 62 67 70 43 40 58 62 38 8 1 0 349 340 337 324 313 306 298 293 290 287 286 284 283 283 283 281 279 278 278 278 277 276
161 162 163 163 162 160 156 152 148 144 140 134 128 122 114 112 110 106 109 112 107 101 100 95 90 91 91 87 87 86 79 73 70 69 70 72 79 93 106 110 104 101 103 109 114 108 95 99 101 87 80 83 65 52 61 41 26 38 46 19 11 18 5 331 327 335 335 324 311 301 294 289 287 284 282 282 281 281 280 279 278 276 274 275 275
164 167 170 169 168 166 162 157 153 151 149 146 144 140 133 128 123 120 123 124 114 107 108 112 110 107 106 104 99 96 89 84 87 87 83 82 89 96 107 115 114 116 116 116 121 122 118 123 118 98 91 113 83 50 48 41 20 20 26 7 6 18 6 329 320 320 328 332 318 307 298 290 289 287 284 283 280 278 278 277 277 276 275 275 274
168 171 174 176 176 173 168 164 159 156 155 153 152 152 149 146 143 140 143 142 129 121 123 133 136 131 138 136 124 117 110 104 111 112 105 105 114 114 113 115 114 111 112 122 125 123 125 132 137 119 97 84 71 54 47 40 24 13 7 356 353 352 344 346 328 308 319 332 325 312 304 295 291 290 288 288 285 282 280 278 277 276 275 275 274
172 174 178 180 181 180 177 173 169 165 163 161 161 163 162 160 160 159 159 160 159 157 161 171 170 165 188 199 171 171 176 163 167 146 133 147 138 128 125 121 118 111 104 114 122 127 131 131 139 140 105 77 53 42 22 5 6 357 350 345 338 324 322 335 333 304 310 326 329 315 307 301 296 294 293 292 290 287 285 283 281 279 277 276 275
176 177 180 182 185 187 188 185 181 177 174 172 172 173 171 169 167 166 170 177 181 183 186 192 196 200 218 226 214 211 213 200 198 190 172 173 160 151 151 142 134 126 118 119 119 139 156 146 143 123 82 83 49 28 7 345 338 334 336 336 327 316 311 321 322 301 307 324 331 323 316 313 305 303 302 298 294 290 288 286 283 281 279 278 276
180 181 184 186 189 192 194 193 189 184 184 184 183 186 186 183 182 181 186 193 196 202 205 206 207 210 218 227 229 224 222 222 222 212 193 189 186 181 180 174 162 151 143 145 148 163 206 190 170 165 152 169 304 3 2 352 340 329 332 336 326 311 307 315 317 306 311 324 329 325 326 327 320 318 316 309 303 296 291 287 284 281 279 277 276
185 186 188 191 194 197 199 199 196 193 191 191 194 198 200 202 208 209 206 207 211 213 213 215 216 215 218 226 227 221 220 223 227 229 217 207 207 204 206 207 190 166 169 184 180 186 220 219 199 196 190 196 276 284 337 350 337 326 329 334 330 319 310 313 314 309 307 313 316 317 321 322 319 320 322 322 316 305 298 297 293 286 281 277 276
190 193 194 198 201 201 203 205 203 199 193 193 197 201 208 213 214 215 212 212 217 217 215 219 222 222 227 230 226 222 222 220 223 231 228 222 231 230 220 222 216 199 205 217 211 219 237 247 263 274 251 226 261 297 322 337 327 323 329 331 328 323 317 312 310 307 301 305 311 314 318 320 320 322 326 328 324 312 309 312 305 294 285 281 280
192 196 197 198 198 199 203 202 201 200 200 201 200 201 212 218 216 216 216 217 221 221 219 218 217 222 228 230 229 228 227 225 224 223 219 220 233 239 232 231 231 225 224 225 228 243 256 267 282 292 291 286 292 319 327 329 328 330 333 327 319 317 316 312 308 302 293 303 311 312 316 318 316 316 320 322 316 306 310 320 317 302 295 297 297
186 192 194 192 189 194 199 199 202 204 204 208 212 214 218 219 221 222 218 219 223 221 221 220 218 224 230 233 237 235 233 236 237 230 221 215 215 224 236 240 240 243 243 237 237 254 268 273 277 286 298 300 306 323 328 331 332 329 325 317 310 311 312 310 309 301 287 303 312 309 312 311 302 300 304 307 300 293 304 320 318 294 295 302 303
170 179 189 190 189 197 201 200 198 186 185 208 216 221 220 210 210 214 209 208 212 211 216 220 222 229 234 237 243 247 247 247 246 242 234 224 221 225 231 231 234 240 246 253 259 266 276 283 289 302 308 308 317 326 325 330 333 325 320 315 309 310 311 310 313 308 288 305 314 311 311 309 299 295 295 294 287 284 293 297 269 269 289 298 298
167 178 198 205 202 202 202 196 177 166 189 205 202 195 189 182 174 169 175 175 170 183 197 213 235 241 241 239 238 246 255 251 244 241 235 230 231 232 229 227 229 227 223 238 263 266 279 291 299 308 309 312 324 320 316 327 333 325 320 313 306 308 311 310 312 310 305 323 320 311 308 308 299 294 293 292 289 284 277 267 265 278 294 301 296
220 221 239 242 214 185 175 170 154 164 194 195 181 170 163 156 145 136 139 136 122 121 120 91 292 287 280 271 236 208 236 253 249 244 236 229 227 227 228 230 233 224 214 216 227 239 281 297 295 304 318 324 322 321 322 329 328 321 314 306 300 304 306 303 303 301 304 319 317 306 304 306 302 295 292 292 292 287 279 278 284 292 300 305 298
206 212 205 183 161 143 135 134 126 126 159 172 175 174 162 153 143 130 120 111 100 82 63 37 328 314 307 302 275 171 220 268 248 232 234 231 224 221 223 224 221 211 204 207 212 221 244 287 302 307 324 321 315 320 327 323 321 316 307 302 301 301 298 296 296 296 299 305 306 301 301 303 303 297 294 294 293 288 286 290 294 295 299 307 303
144 150 148 139 129 119 115 117 114 112 125 149 166 172 164 160 156 141 124 116 105 85 74 67 33 8 349 327 311 158 135 253 209 195 206 214 206 198 193 191 190 187 187 196 212 230 243 260 290 293 298 303 304 311 317 316 313 305 298 297 298 297 293 290 288 288 289 290 288 292 297 302 306 302 296 296 295 292 290 292 293 296 299 305 306
133 141 142 130 119 113 108 105 103 109 120 137 153 164 167 168 167 157 145 136 114 93 82 74 60 54 53 43 47 105 125 165 181 168 162 164 162 160 156 151 154 163 172 190 216 242 255 254 268 274 265 268 276 287 298 303 301 293 290 289 288 287 286 286 286 285 285 283 275 280 291 299 306 302 296 297 298 295 295 295 295 298 299 300 303
137 141 135 125 121 116 111 108 106 109 120 135 147 160 168 170 171 169 172 164 127 105 93 83 77 76 78 79 88 104 117 138 152 150 146 147 149 152 151 146 149 170 204 228 241 255 263 263 264 263 257 263 276 287 292 294 293 291 292 289 284 281 282 287 290 289 289 286 276 278 289 297 304 301 297 298 299 296 297 298 296 296 296 296 300
139 140 136 134 132 124 118 119 116 115 128 147 154 162 170 167 166 180 192 168 137 120 106 93 88 91 96 95 94 100 109 115 129 142 143 143 153 160 153 150 151 167 213 247 261 267 276 284 284 285 288 291 298 304 302 300 298 295 291 288 288 289 290 291 292 294 295 294 287 283 288 293 300 301 299 300 300 298 298 297 297 296 295 296 300
149 151 148 144 141 134 130 131 128 131 155 178 168 166 173 168 166 190 200 164 141 129 116 105 95 92 97 102 102 107 114 116 124 141 144 141 158 168 156 156 162 161 181 247 280 291 305 319 321 319 320 319 317 316 308 303 308 303 283 281 293 298 292 290 294 297 297 293 289 286 288 294 300 302 303 304 301 297 296 297 297 296 295 296 298
165 170 172 165 157 150 146 149 146 145 161 179 173 168 171 169 171 197 210 170 145 127 120 116 108 102 102 109 116 120 125 130 137 150 154 147 147 157 158 178 187 170 159 187 251 286 306 316 317 315 315 314 313 308 293 292 304 306 280 277 289 293 291 293 296 297 295 293 297 299 296 299 305 304 304 305 302 298 300 299 298 298 297 296 296